• In United Kingdom
  • List of Countries
  • For 7 days
  • Water Temperature
  • Satellite Maps
  • Weather Map
  • Weather Widgets
  • user-avatar
    Login

    Hourly Weather Sankt Polten

    Today, 30 May, Tuesday

    Time Temperature Precipitation Wind Pressure Humidity
    00:00 +16°C° 0 mm 1 mps 734 mmHg 87%
    01:00 +16°C° 0 mm 1 mps 734 mmHg 85%
    02:00 +16°C° 0 mm 1 mps 734 mmHg 84%
    03:00 +15°C° 0 mm 1 mps 734 mmHg 84%
    04:00 +15°C° 0 mm 1 mps 734 mmHg 83%
    05:00 +19°C° 0 mm 1 mps 734 mmHg 76%
    06:00 +20°C° 0 mm 0 mps 735 mmHg 70%
    07:00 +23°C° 0 mm 0 mps 735 mmHg 63%
    08:00 +24°C° 0 mm 0 mps 735 mmHg 58%
    09:00 +28°C° 0 mm 1 mps 735 mmHg 52%
    10:00 +30°C° 0 mm 1 mps 735 mmHg 46%
    11:00 +30°C° 0.2 mm 1 mps 735 mmHg 47%
    12:00 +31°C° 0.2 mm 1 mps 735 mmHg 47%
    13:00 +31°C° 0.2 mm 1 mps 735 mmHg 47%
    14:00 +31°C° 0.2 mm 1 mps 735 mmHg 48%
    15:00 +31°C° 0.2 mm 1 mps 734 mmHg 49%
    16:00 +31°C° 0.2 mm 1 mps 734 mmHg 49%
    17:00 +29°C° 0.3 mm 1 mps 734 mmHg 60%
    18:00 +27°C° 0.3 mm 1 mps 734 mmHg 70%
    19:00 +25°C° 0.3 mm 1 mps 734 mmHg 80%
    20:00 +23°C° 0.5 mm 1 mps 735 mmHg 82%
    21:00 +22°C° 0.5 mm 1 mps 735 mmHg 85%
    22:00 +20°C° 0.5 mm 2 mps 735 mmHg 87%
    23:00 +20°C° 0.2 mm 2 mps 735 mmHg 89%

    Tomorrow, 31 May, Wednesday

    Time Temperature Precipitation Wind Pressure Humidity
    00:00 +20°C° 0.2 mm 2 mps 736 mmHg 90%
    01:00 +20°C° 0.2 mm 2 mps 736 mmHg 92%
    02:00 +19°C° 0.3 mm 2 mps 736 mmHg 92%
    03:00 +19°C° 0.3 mm 2 mps 736 mmHg 93%
    04:00 +19°C° 0.3 mm 2 mps 736 mmHg 94%
    05:00 +20°C° 0.3 mm 2 mps 736 mmHg 90%
    06:00 +21°C° 0.3 mm 2 mps 737 mmHg 87%
    07:00 +22°C° 0.3 mm 3 mps 737 mmHg 83%
    08:00 +24°C° 0.2 mm 3 mps 737 mmHg 78%
    09:00 +25°C° 0.2 mm 3 mps 737 mmHg 72%
    10:00 +26°C° 0.2 mm 3 mps 738 mmHg 66%
    11:00 +26°C° 0.5 mm 3 mps 737 mmHg 65%
    12:00 +27°C° 0.5 mm 3 mps 737 mmHg 65%
    13:00 +27°C° 0.5 mm 3 mps 737 mmHg 65%
    14:00 +27°C° 0.9 mm 3 mps 737 mmHg 68%
    15:00 +26°C° 0.9 mm 2 mps 737 mmHg 71%
    16:00 +26°C° 0.9 mm 2 mps 737 mmHg 75%
    17:00 +25°C° 0.6 mm 2 mps 737 mmHg 79%
    18:00 +24°C° 0.6 mm 1 mps 737 mmHg 84%
    19:00 +22°C° 0.6 mm 1 mps 737 mmHg 89%
    20:00 +21°C° 0.4 mm 1 mps 737 mmHg 90%
    21:00 +20°C° 0.4 mm 1 mps 738 mmHg 92%
    22:00 +16°C° 0.4 mm 0 mps 738 mmHg 94%
    23:00 +16°C° 0.2 mm 0 mps 738 mmHg 94%

    Day after tomorrow, 1 June, Thursday

    Time Temperature Precipitation Wind Pressure Humidity
    00:00 +18°C° 0.2 mm 1 mps 738 mmHg 94%
    01:00 +18°C° 0.2 mm 1 mps 738 mmHg 94%
    02:00 +16°C° 0.1 mm 1 mps 738 mmHg 94%
    03:00 +16°C° 0.1 mm 1 mps 738 mmHg 94%
    04:00 +16°C° 0.1 mm 1 mps 738 mmHg 95%
    05:00 +18°C° 0 mm 1 mps 738 mmHg 93%
    06:00 +19°C° 0 mm 1 mps 739 mmHg 91%
    07:00 +20°C° 0 mm 1 mps 739 mmHg 89%
    08:00 +21°C° 0.1 mm 1 mps 739 mmHg 83%
    09:00 +22°C° 0.1 mm 1 mps 739 mmHg 78%
    10:00 +23°C° 0.1 mm 1 mps 739 mmHg 73%
    11:00 +24°C° 0.2 mm 1 mps 739 mmHg 69%
    12:00 +25°C° 0.2 mm 1 mps 739 mmHg 66%
    13:00 +26°C° 0.2 mm 1 mps 739 mmHg 62%
    14:00 +25°C° 0.2 mm 1 mps 739 mmHg 63%
    15:00 +25°C° 0.2 mm 1 mps 739 mmHg 63%
    16:00 +25°C° 0.2 mm 1 mps 738 mmHg 63%
    17:00 +24°C° 0.1 mm 1 mps 738 mmHg 70%
    18:00 +23°C° 0.1 mm 1 mps 738 mmHg 76%
    19:00 +22°C° 0.1 mm 1 mps 738 mmHg 82%
    20:00 +20°C° 0 mm 1 mps 738 mmHg 85%
    21:00 +19°C° 0 mm 1 mps 739 mmHg 87%
    22:00 +18°C° 0 mm 1 mps 739 mmHg 90%
    23:00 +16°C° 0 mm 1 mps 739 mmHg 91%

    2 June, Friday

    Time Temperature Precipitation Wind Pressure Humidity
    00:00 +15°C° 0 mm 1 mps 739 mmHg 92%
    01:00 +15°C° 0 mm 1 mps 738 mmHg 93%
    02:00 +14°C° 0 mm 1 mps 738 mmHg 92%
    03:00 +14°C° 0 mm 1 mps 738 mmHg 91%
    04:00 +13°C° 0 mm 1 mps 738 mmHg 91%
    05:00 +15°C° 0 mm 1 mps 738 mmHg 85%
    06:00 +18°C° 0 mm 1 mps 738 mmHg 79%
    07:00 +20°C° 0 mm 1 mps 739 mmHg 73%
    08:00 +21°C° 0 mm 1 mps 739 mmHg 68%
    09:00 +23°C° 0 mm 2 mps 739 mmHg 63%
    10:00 +24°C° 0 mm 2 mps 739 mmHg 58%
    11:00 +25°C° 0 mm 2 mps 738 mmHg 57%
    12:00 +26°C° 0 mm 2 mps 738 mmHg 57%
    13:00 +26°C° 0 mm 3 mps 738 mmHg 56%
    14:00 +26°C° 0.1 mm 3 mps 737 mmHg 58%
    15:00 +26°C° 0.1 mm 3 mps 737 mmHg 60%
    16:00 +26°C° 0.1 mm 3 mps 737 mmHg 62%
    17:00 +25°C° 0.1 mm 2 mps 737 mmHg 69%
    18:00 +24°C° 0.1 mm 2 mps 736 mmHg 76%
    19:00 +21°C° 0.1 mm 2 mps 736 mmHg 83%
    20:00 +20°C° 0.1 mm 2 mps 736 mmHg 86%
    21:00 +19°C° 0.1 mm 1 mps 736 mmHg 89%
    22:00 +18°C° 0.1 mm 1 mps 736 mmHg 93%
    23:00 +16°C° 0.2 mm 1 mps 736 mmHg 93%

    3 June, Saturday

    Time Temperature Precipitation Wind Pressure Humidity
    00:00 +16°C° 0.2 mm 1 mps 736 mmHg 94%
    01:00 +15°C° 0.2 mm 1 mps 736 mmHg 94%
    02:00 +15°C° 0.1 mm 1 mps 735 mmHg 94%
    03:00 +14°C° 0.1 mm 1 mps 735 mmHg 95%
    04:00 +14°C° 0.1 mm 1 mps 735 mmHg 95%
    05:00 +15°C° 0 mm 0 mps 735 mmHg 90%
    06:00 +17°C° 0 mm 0 mps 736 mmHg 85%
    07:00 +20°C° 0 mm 0 mps 736 mmHg 80%
    08:00 +21°C° 0.2 mm 0 mps 736 mmHg 75%
    09:00 +25°C° 0.2 mm 1 mps 736 mmHg 70%
    10:00 +27°C° 0.2 mm 1 mps 736 mmHg 64%
    11:00 +27°C° 0.7 mm 1 mps 736 mmHg 63%
    12:00 +28°C° 0.7 mm 1 mps 736 mmHg 62%
    13:00 +28°C° 0.7 mm 1 mps 735 mmHg 61%
    14:00 +28°C° 0.7 mm 1 mps 735 mmHg 62%
    15:00 +28°C° 0.7 mm 1 mps 735 mmHg 63%
    16:00 +28°C° 0.7 mm 1 mps 735 mmHg 63%
    17:00 +27°C° 0.2 mm 1 mps 735 mmHg 70%
    18:00 +25°C° 0.2 mm 1 mps 734 mmHg 77%
    19:00 +24°C° 0.2 mm 1 mps 734 mmHg 83%
    20:00 +22°C° 0.1 mm 1 mps 734 mmHg 86%
    21:00 +21°C° 0.1 mm 1 mps 734 mmHg 89%
    22:00 +19°C° 0.1 mm 1 mps 735 mmHg 91%
    23:00 +19°C° 0 mm 1 mps 734 mmHg 92%

    4 June, Sunday

    Time Temperature Precipitation Wind Pressure Humidity
    00:00 +18°C° 0 mm 1 mps 734 mmHg 92%
    01:00 +18°C° 0 mm 1 mps 734 mmHg 92%
    02:00 +16°C° 0 mm 1 mps 734 mmHg 92%
    03:00 +16°C° 0 mm 1 mps 734 mmHg 92%
    04:00 +16°C° 0 mm 1 mps 734 mmHg 93%
    05:00 +19°C° 0 mm 1 mps 734 mmHg 87%
    06:00 +21°C° 0 mm 1 mps 734 mmHg 82%
    07:00 +24°C° 0 mm 1 mps 734 mmHg 76%
    08:00 +25°C° 0 mm 1 mps 734 mmHg 69%
    09:00 +27°C° 0 mm 1 mps 734 mmHg 61%
    10:00 +29°C° 0 mm 2 mps 734 mmHg 54%
    11:00 +30°C° 0 mm 2 mps 734 mmHg 51%
    12:00 +31°C° 0 mm 2 mps 734 mmHg 49%
    13:00 +32°C° 0 mm 2 mps 733 mmHg 46%
    14:00 +31°C° 0 mm 2 mps 733 mmHg 47%
    15:00 +31°C° 0 mm 3 mps 733 mmHg 49%
    16:00 +31°C° 0 mm 3 mps 732 mmHg 50%
    17:00 +29°C° 0.1 mm 3 mps 732 mmHg 59%
    18:00 +27°C° 0.1 mm 2 mps 732 mmHg 68%
    19:00 +26°C° 0.1 mm 2 mps 731 mmHg 77%
    20:00 +24°C° 0.2 mm 2 mps 731 mmHg 81%
    21:00 +23°C° 0.2 mm 2 mps 731 mmHg 84%
    22:00 +20°C° 0.2 mm 2 mps 732 mmHg 88%
    23:00 +19°C° 0.1 mm 2 mps 731 mmHg 89%
    Show more